This is the latest recevied weather packets stored in our database for station/object K5NAN. If no packets are shown the sender has not sent any weather packets the latest 10 day(s).
| Time | Temp. | Humidity | Pressure | Rain* | Wind** | Luminosity | Snow |
|---|---|---|---|---|---|---|---|
| 1777422843 | 25° C | 86% | 1008.4 hPa | 0 mm | - | 50 W/m² | - |
| 1777422539 | 25.56° C | 86% | 1008.3 hPa | 0 mm | - | 59 W/m² | - |
| 1777422235 | 25° C | 86% | 1008.1 hPa | 0 mm | - | 63 W/m² | - |
| 1777421935 | 25° C | 86% | 1008.2 hPa | 0 mm | - | 66 W/m² | - |
| 1777421630 | 25° C | 87% | 1007.9 hPa | 0 mm | - | 59 W/m² | - |
| 1777421325 | 25° C | 87% | 1007.8 hPa | 0 mm | - | 68 W/m² | - |
| 1777421022 | 25° C | 87% | 1007.8 hPa | 0 mm | - | 79 W/m² | - |
| 1777420718 | 25° C | 88% | 1008.1 hPa | 0 mm | - | 85 W/m² | - |
| 1777420415 | 25° C | 88% | 1007.9 hPa | 0 mm | - | 73 W/m² | - |
| 1777420111 | 25° C | 89% | 1008.2 hPa | 0 mm | - | 75 W/m² | - |
| 1777419807 | 25° C | 89% | 1008.2 hPa | 0 mm | - | 126 W/m² | - |
| 1777419505 | 24.44° C | 90% | 1008.1 hPa | 0 mm | - | 133 W/m² | - |
| 1777419204 | 24.44° C | 90% | 1008.4 hPa | 0 mm | - | 103 W/m² | - |
| 1777418900 | 24.44° C | 90% | 1006.3 hPa | 0 mm | - | 79 W/m² | - |
| 1777418596 | 24.44° C | 90% | 1006.9 hPa | 0 mm | - | 47 W/m² | - |
| 1777418292 | 24.44° C | 90% | 1006.9 hPa | 0 mm | - | 31 W/m² | - |
| 1777417988 | 23.89° C | 90% | 1008 hPa | 0 mm | - | 21 W/m² | - |
| 1777417684 | 23.89° C | 90% | 1007.9 hPa | 0 mm | - | 12 W/m² | - |
| 1777417379 | 23.89° C | 90% | 1007.6 hPa | 0 mm | - | 10 W/m² | - |
| 1777417076 | 24.44° C | 90% | 1007.5 hPa | 0 mm | - | 10 W/m² | - |
| 1777416772 | 24.44° C | 89% | 1007.8 hPa | 0 mm | - | 9 W/m² | - |
| 1777416468 | 24.44° C | 89% | 1008 hPa | 0 mm | - | 9 W/m² | - |
| 1777416164 | 24.44° C | 89% | 1007.9 hPa | 0 mm | - | 8 W/m² | - |
| 1777415864 | 24.44° C | 89% | 1007.9 hPa | 0 mm | - | 8 W/m² | - |
| 1777415560 | 24.44° C | 89% | 1008.3 hPa | 0 mm | - | 8 W/m² | - |
* Rain latest hour (hover to see other rain measurements)
** Current wind speed in m/s (hover to see current wind gust speed)